[[{"header":{"parameterUnit":"m.s-1","parameterCategory":1,"la1":30.2992,"la2":30.254,"lo1":-89.0895,"lo2":-89.0443,"dy":0.0025,"dx":0.0025,"nx":19,"ny":19,"refTime":"2026-03-08T09:00:00:Z","depth":0,"parameterNumber":2,"parameterNumberName":"U-component_of_WINDS"},"data":[0,0,0,-1.0638,-1.0639,-1.0692,-1.0692,-1.0765,-1.0765,0,0,0,0,0,0,0,0,0,0,0,-1.0625,-1.0626,-1.0638,-1.0639,-1.0692,-1.0692,-1.0764,-1.0765,0,0,0,0,0,0,0,0,0,0,0,-1.0625,-1.0626,-1.0626,-1.064,-1.0692,-1.0692,-1.0764,-1.0723,0,0,0,0,0,0,0,0,0,0,-1.0671,-1.0661,-1.0625,-1.0626,-1.064,-1.0692,-1.0692,-1.0721,-1.0726,-1.0743,0,-1.0758,0,-1.0763,-1.077,-1.0771,0,0,0,-1.0638,-1.0658,-1.0669,-1.0626,-1.064,-1.0692,-1.0668,-1.0723,-1.0729,-1.0749,-1.0759,-1.0762,-1.0764,-1.0771,-1.0771,-1.0874,-1.0874,0,0,-1.0635,-1.0636,-1.0666,-1.0673,-1.0664,-1.0666,-1.0669,-1.0727,-1.0738,-1.0759,-1.0763,-1.0765,-1.0771,-1.0772,-1.0873,-1.0874,0,0,0,-1.0628,-1.0634,-1.0644,-1.067,-1.0679,-1.0668,-1.0671,-1.0735,-1.0739,-1.0764,-1.0766,-1.0772,-1.0773,-1.0873,-1.0874,-1.0901,0,0,0,-1.0626,-1.063,-1.0643,-1.0645,-1.0678,-1.0708,-1.0679,-1.0735,-1.0741,-1.0766,-1.0772,-1.0773,-1.0872,-1.0873,-1.0899,-1.0914,0,0,0,-1.0621,-1.0629,-1.0638,-1.0645,-1.0667,-1.0707,-1.0713,-1.0736,-1.0742,-1.0771,-1.0774,-1.0872,-1.0873,-1.0897,-1.0911,-1.094,0,0,0,-1.0616,-1.0662,-1.0638,-1.0691,-1.0667,-1.0723,-1.0713,-1.0755,-1.0783,-1.0772,-1.0872,-1.0873,-1.0896,-1.0909,-1.0938,-1.0964,-1.0975,0,0,-1.0675,-1.0669,-1.07,-1.068,-1.0741,-1.0715,-1.0781,-1.0805,-1.0808,-1.0852,-1.0854,-1.0899,-1.091,-1.094,-1.104,-1.1049,0,0,0,-1.0719,-1.0741,-1.0757,-1.0783,-1.0802,-1.082,-1.0834,-1.0844,-1.0881,-1.083,-1.0919,-1.0925,-1.0942,-1.0955,-1.0962,-1.0976,-1.088,-1.0879,-1.0879,-1.0804,-1.0803,-1.0854,-1.086,-1.0885,-1.0899,-1.092,-1.0934,-1.0928,-1.0949,-1.0961,-1.1022,-1.1037,-1.1042,-1.1057,-1.0976,-1.0976,-1.0976,-1.0976,-1.0889,-1.092,-1.0909,-1.0954,-1.0953,-1.0991,-1.1007,-1.1001,-1.1036,-1.1013,-1.1028,-1.1,-1.1052,-1.1065,-1.0978,-1.0978,-1.0978,-1.0978,-1.0977,-1.0944,-1.0958,-1.0968,-1.1005,-1.1033,-1.1038,-1.1072,-1.1071,-1.1071,-1.1086,-1.1099,-1.1098,-1.1097,-1.1092,-1.1092,-1.1093,-1.1093,-1.1093,-1.1093,-1.0996,-1.1006,-1.1035,-1.1059,-1.1075,-1.1096,-1.1111,-1.1127,-1.1144,-1.1141,-1.1141,-1.1131,-1.1057,-1.1038,-1.1096,-1.1096,-1.1095,-1.1095,-1.1095,-1.1081,-1.1062,-1.1105,-1.1121,-1.1149,-1.1177,-1.1176,-1.1208,-1.1222,-1.1238,-1.1226,-1.1172,-1.1166,-1.116,-1.1144,-1.1226,-1.1226,-1.1226,-1.1226,-1.1126,-1.1123,-1.1167,-1.1193,-1.1218,-1.122,-1.127,-1.1282,-1.1292,-1.13,-1.1289,-1.1268,-1.1262,-1.126,-1.1251,-1.1236,-1.134,-1.134,-1.134,-1.1178,-1.1177,-1.1219,-1.1227,-1.1249,-1.1268,-1.1315,-1.1345,-1.1352,-1.1345,-1.1306,-1.1302,-1.1268,-1.1257,-1.1248,-1.1235,-1.1208,0,0]},{"header":{"parameterUnit":"m.s-1","parameterCategory":1,"la1":30.2992,"la2":30.254,"lo1":-89.0895,"lo2":-89.0443,"dy":0.0025,"dx":0.0025,"nx":19,"ny":19,"refTime":"2026-03-08T09:00:00:Z","depth":0,"parameterNumber":3,"parameterNumberName":"V-component_of_WINDS"},"data":[0,0,0,1.9771,1.9772,1.9807,1.9807,1.9855,1.9856,0,0,0,0,0,0,0,0,0,0,0,1.9762,1.9762,1.9771,1.9772,1.9807,1.9807,1.9855,1.9856,0,0,0,0,0,0,0,0,0,0,0,1.9762,1.9762,1.9762,1.9772,1.9807,1.9807,1.9855,1.9828,0,0,0,0,0,0,0,0,0,0,1.9793,1.9785,1.9762,1.9762,1.9772,1.9807,1.9807,1.9826,1.9829,1.9841,0,1.9851,0,1.9854,1.9859,1.986,0,0,0,1.9771,1.9783,1.9791,1.9763,1.9772,1.9807,1.9791,1.9828,1.9832,1.9845,1.9851,1.9853,1.9855,1.986,1.986,1.993,1.993,0,0,1.9769,1.9769,1.9789,1.9794,1.9787,1.979,1.9792,1.983,1.9837,1.9852,1.9854,1.9856,1.986,1.986,1.993,1.993,0,0,0,1.9764,1.9767,1.9775,1.9792,1.9798,1.9791,1.9793,1.9835,1.9838,1.9855,1.9856,1.986,1.9861,1.9929,1.993,1.9949,0,0,0,1.9763,1.9764,1.9774,1.9774,1.9797,1.9817,1.9797,1.9835,1.9839,1.9856,1.986,1.9861,1.9929,1.9929,1.9947,1.9958,0,0,0,1.9759,1.9764,1.9769,1.9774,1.9789,1.9816,1.9821,1.9836,1.9841,1.986,1.9862,1.9928,1.9929,1.9946,1.9956,1.9979,0,0,0,1.9755,1.9784,1.977,1.9803,1.9789,1.9827,1.982,1.9849,1.9867,1.9861,1.9929,1.993,1.9946,1.9955,1.9977,1.9998,2.0007,0,0,1.9791,1.9788,1.9808,1.9797,1.9838,1.9822,1.9866,1.9883,1.9885,1.9915,1.9917,1.9948,1.9956,1.9978,2.0051,2.0057,0,0,0,1.982,1.9835,1.9846,1.9864,1.9878,1.9892,1.9902,1.9909,1.9935,1.99,1.9961,1.9966,1.9979,1.9989,1.9995,2.0008,1.9934,1.9934,1.9934,1.9871,1.9873,1.9908,1.9915,1.9933,1.9945,1.996,1.9972,1.9967,1.9982,1.9991,2.0035,2.0047,2.0051,2.0064,2.0001,2.0001,2.0001,2.0001,1.9927,1.9949,1.9945,1.9977,1.998,2.0007,2.0021,2.0017,2.0044,2.0027,2.0039,2.0021,2.0058,2.007,2.0003,2.0003,2.0002,2.0002,2.0002,1.9962,1.9973,1.9981,2.001,2.0033,2.0039,2.0067,2.0067,2.0069,2.008,2.0092,2.0092,2.0094,2.0086,2.0086,2.0086,2.0086,2.0086,2.0086,1.9995,2.0004,2.0027,2.0047,2.0061,2.0079,2.0094,2.0108,2.0124,2.0122,2.0123,2.0119,2.0061,2.0047,2.0089,2.0088,2.0088,2.0088,2.0088,2.0053,2.0041,2.0076,2.009,2.0116,2.014,2.0141,2.017,2.0182,2.0196,2.0191,2.0147,2.0144,2.0139,2.0128,2.0188,2.0188,2.0188,2.0188,2.0084,2.0083,2.0121,2.0144,2.0166,2.0173,2.0215,2.0228,2.024,2.0248,2.0239,2.0224,2.022,2.022,2.0213,2.0203,2.0281,2.0281,2.0281,2.0121,2.0123,2.0158,2.0169,2.0191,2.021,2.025,2.0279,2.0289,2.0285,2.0255,2.0251,2.0227,2.0219,2.0214,2.0204,2.0186,0,0]}]]